User: anonymous   Login
Location: Unspecified
(0.0000°N, 0.0000°E)
Time: 18:55:03
(UTC+00:00)
Language:

DICE 1 - Orbit

View from above orbital plane
View from above orbital plane
View from above satellite
View from above satellite

Ground track
Ground track

The orbit data is extracted from the following two-line orbital elements,

1 37851U 11061B   17084.45565917 +.00001750 +00000-0 +10229-3 0  9995
2 37851 101.7427 269.0846 0190473 341.5598 017.8770 15.00765395293984
Epoch (UTC): 25 March 2017 10:56:08
Eccentricity: 0.0190473
inclination: 101.7427°
perigee height: 432 km
apogee height: 697 km
right ascension of ascending node: 269.0846°
argument of perigee: 341.5598°
revolutions per day: 15.00765395
mean anomaly at epoch: 17.8770°
orbit number at epoch: 29398

The dashed part of the orbit path shows where the satellite is in the earth's shadow,  

DLR